Santo Island/Pekoa Airport, Vanuatu

8:45 PM +11 on October 24, 2017 (GMT +1100)
Santo Island/Pekoa Airport

Weather History for 91554 - February, 2014

Change the Weather History Date:

Tuesday, February 11, 2014

  Actual Average Record
Temperature  
Mean Temperature 81 °F -  
Max Temperature 87 °F - - ()
Min Temperature 75 °F - - ()
Cooling Degree Days 16    
Growing Degree Days 31 (Base 50)    
Moisture  
Dew Point 78 °F    
Average Humidity 83    
Maximum Humidity 94    
Minimum Humidity 71    
Precipitation  
Precipitation 0.28 in - - ()
Sea Level Pressure  
Sea Level Pressure 29.67 in    
Wind  
Wind Speed 5 mph ()    
Max Wind Speed 9 mph    
Max Gust Speed -    
Visibility 8.5 miles    
Events Rain , Thunderstorm    
T = Trace of Precipitation, MM = Missing Value Source: Averaged Metar Reports

Daily Weather History Graph

Daily Weather History Graph

Search for Another Location

Airport or City:

Trip Planner

Search our weather history database for the weather conditions in past years. The results will help you decide how hot, cold, wet, or windy it might be!

Date:

Astronomy

Feb. 11, 2014 Rise Set
Actual Time 5:45 AM +11 6:24 PM +11
Civil Twilight 5:23 AM +11 6:47 PM +11
Nautical Twilight 4:57 AM +11 7:13 PM +11
Astronomical Twilight 4:30 AM +11 7:39 PM +11
Moon 3:33 PM +11 (2/11) 2:24 AM +11 (2/11)
Length of Visible Light 13h 23m
Length of Day
12h 39m
Waxing Gibbous, 86% of the Moon is Illuminated
Feb 11
Waxing Gibbous
Feb 15
Full
Feb 23
Last Quarter
Mar 1
New
Mar 9
First Quarter

Hourly Weather History & Observations

Time (+11) Temp. Heat Index Dew Point Humidity Pressure Visibility Wind Dir Wind Speed Gust Speed Precip Events Conditions
2:00 AM 78 °F - 77 °F 94% 29.65 in 12 mi 2.3 mph - -   Mostly Cloudy
2:00 AM 77.0 °F - 75.2 °F 94% 29.62 in 6.2 mi Variable 2.3 mph - N/A   Partly Cloudy
5:00 AM 81 °F - 78 °F 89% 29.64 in 12 mi ESE 9.2 mph - - Rain Light Rain Showers
5:00 AM 80.6 °F 87.1 °F 77.0 °F 89% 29.62 in 6.2 mi ESE 9.2 mph - N/A   Partly Cloudy
8:00 AM 85 °F - 79 °F 77% 29.69 in 12 mi ESE 8.1 mph - -   Partly Cloudy
8:00 AM 86.0 °F 99.3 °F 78.8 °F 79% 29.68 in 6.2 mi ESE 8.1 mph - N/A   Partly Cloudy
9:00 AM 86.0 °F 99.3 °F 78.8 °F 79% 29.71 in 6.2 mi East 6.9 mph - N/A   Partly Cloudy
10:00 AM 84.2 °F 96.1 °F 78.8 °F 84% 29.68 in 6.2 mi ESE 9.2 mph - N/A   Mostly Cloudy
11:00 AM 85 °F - 79 °F 77% 29.70 in 12 mi SSE 9.2 mph - -   Partly Cloudy
11:00 AM 86.0 °F 99.3 °F 78.8 °F 79% 29.68 in 6.2 mi SSE 9.2 mph - N/A   Mostly Cloudy
12:00 PM 84.2 °F 96.1 °F 78.8 °F 84% 29.68 in 6.2 mi SSE 5.8 mph - N/A   Mostly Cloudy
2:00 PM 87 °F - 79 °F 71% 29.65 in 12 mi ESE 5.8 mph - -   Partly Cloudy
2:00 PM 87.8 °F 102.5 °F 78.8 °F 75% 29.65 in 6.2 mi ESE 5.8 mph - N/A   Mostly Cloudy
3:00 PM 84.2 °F 92.3 °F 75.2 °F 74% 29.62 in 6.2 mi ESE 9.2 mph - N/A   Mostly Cloudy
5:00 PM 85 °F - 77 °F 72% 29.66 in 12 mi ESE 5.8 mph - -   Partly Cloudy
5:00 PM 84.2 °F 94.1 °F 77.0 °F 79% 29.65 in 6.2 mi ESE 5.8 mph - N/A   Overcast
8:00 PM 80 °F - 78 °F 93% 29.72 in 12 mi 2.3 mph - -   Partly Cloudy
8:00 PM 78.8 °F - 77.0 °F 94% 29.71 in 6.2 mi Variable 2.3 mph - N/A   Mostly Cloudy
11:00 PM 80 °F - 76 °F 86% 29.74 in 12 mi 3.5 mph - - Thunderstorm Thunderstorm
11:00 PM 78.8 °F - 75.2 °F 89% 29.71 in 6.2 mi Variable 3.5 mph - N/A Thunderstorm Thunderstorm